Temp
2 2 2 2 2 2 1 1 1 1 -0 -0 -1 -1 -2 -3 -3 -3 -3 -3 -3 -3 -2 -2 -2 -3 -2 -3 -2 -2 -1 -0 -1 -0 -0 1 1 1 2 3 1 2 1 4
2 2 2 2 2 1 1 1 1 1 0 -0 -1 -1 -1 -2 -3 -3 -3 -2 -3 -3 -2 -2 -2 -2 -2 -2 -2 -1 -1 -1 -1 -1 -0 1 1 2 2 2 2 2 0 4
2 2 2 2 2 1 1 1 1 1 1 0 -0 -1 -1 -1 -2 -2 -3 -2 -2 -2 -2 -2 -2 -2 -2 -2 -2 -1 -1 -1 -0 -0 1 1 1 2 2 2 2 3 4 4
1 2 2 2 2 1 1 1 1 1 1 1 -0 -0 -1 -1 -1 -2 -2 -2 -2 -2 -2 -2 -2 -2 -2 -2 -1 -1 -1 -0 0 0 1 1 1 2 2 2 3 3 4 4
1 1 2 2 2 2 1 1 1 1 1 1 0 -0 -0 -1 -1 -1 -2 -2 -2 -2 -2 -2 -2 -2 -2 -1 -1 -1 -1 -0 0 0 1 1 2 2 2 2 3 2 3 4
1 1 1 2 2 2 2 1 1 1 1 1 0 0 -0 -0 -1 -1 -1 -1 -2 -2 -2 -2 -1 -2 -2 -1 -1 -1 -0 0 -0 0 1 1 1 3 3 3 4 4 4 6
0 1 1 1 2 2 2 1 1 1 1 1 1 0 -0 -0 -1 -1 -1 -1 -1 -1 -2 -2 -1 -1 -1 -1 -1 -1 -1 -1 -1 0 0 -3 3 4 4 4 4 4 5 5
0 0 1 1 1 1 2 1 1 1 1 1 1 1 0 0 -0 -1 -1 -1 -1 -1 -2 -2 -2 -2 -2 -1 -1 -1 -1 -1 -1 -0 -0 2 3 3 4 4 5 5 5 5
-0 0 1 1 1 1 1 2 1 1 1 1 1 1 0 0 -0 -0 -0 -1 -1 -1 -2 -2 -1 -1 -1 -1 -1 -1 -1 -1 -1 -1 -1 -1 3 3 3 3 4 4 5 5
-0 -0 0 0 1 1 1 1 1 1 1 1 1 1 0 0 0 -0 -0 -0 -1 -1 -2 -2 -2 -1 -1 -1 -1 -1 -2 -2 -2 -2 -1 2 3 3 2 2 3 4 4 4
-1 -0 0 0 0 1 1 1 1 1 1 1 1 1 1 0 0 -0 -0 -1 -1 -1 -2 -1 -1 -1 -1 -1 -1 -1 -1 -1 -1 -2 -1 0 3 2 2 3 3 3 4 4
-1 -1 -0 -0 -0 -0 0 1 1 1 1 1 1 1 1 1 0 -0 -0 -0 -1 -1 -1 -1 -1 -1 -1 -1 -0 -0 -0 0 0 1 2 2 2 2 2 2 2 3 3 3
-2 -1 -1 -1 -1 -1 -0 -0 0 0 0 1 1 1 1 1 1 1 -0 -0 -0 -0 -1 -1 -1 -1 -0 0 1 1 1 1 1 1 2 2 2 2 2 2 2 2 2 2
-4 -2 -2 -1 -1 -1 -1 -1 -0 -0 -0 0 1 1 1 1 1 1 0 -0 -0 -1 -1 -1 -1 -1 -1 -0 1 1 1 1 1 2 2 2 2 2 2 2 1 1 1 1
-3 -3 -3 -2 -2 -1 -1 -1 -1 -1 -1 -0 0 0 0 0 0 0 1 1 0 -0 -1 -1 -1 -1 -1 -0 0 2 2 2 2 2 2 1 1 1 1 1 1 1 0 -0
-4 -3 -3 -3 -4 -2 -1 -1 -2 -1 -1 -1 -1 0 1 1 1 1 1 1 1 -0 -0 -0 -1 -1 -1 -1 1 2 2 2 1 2 2 2 2 2 1 1 1 1 0 -0
-4 -4 -4 -3 -4 -3 -3 -3 -2 -2 -2 -2 -2 -1 0 0 1 1 1 1 1 -0 -0 -0 -0 -0 -2 -1 1 2 2 2 2 1 1 1 1 1 1 1 0 -0 -1 -1
-5 -5 -4 -4 -4 -4 -4 -4 -4 -4 -4 -3 -3 -2 -1 0 1 1 1 1 0 0 -0 0 0 -1 -0 0 2 2 2 1 1 1 1 1 1 0 0 -0 -1 -1 -1 -2
-5 -5 -5 -5 -5 -5 -4 -4 -5 -5 -5 -5 -4 -2 -2 -1 -0 -0 0 0 -0 -1 -0 -0 -1 -0 1 2 2 1 1 1 0 0 0 -0 -0 -0 -1 -1 -1 -2 -3 -3
-6 -5 -5 -6 -6 -5 -5 -5 -5 -6 -6 -6 -3 -2 -3 -2 -1 -1 -2 -2 -2 -2 -2 -2 -2 1 2 2 1 1 0 -0 -1 -1 -1 -1 -1 -1 -1 -2 -2 -2 -3 -4
-6 -6 -6 -6 -6 -6 -6 -6 -6 -6 -6 -5 -2 -2 -3 -3 -3 -3 -3 -3 -3 -3 -3 -3 -3 1 2 1 0 0 0 -0 -1 -1 -1 -2 -2 -2 -2 -3 -3 -3 -4 -5
-7 -7 -6 -6 -6 -6 -6 -6 -6 -5 -4 -3 -1 0 -1 -4 -4 -5 -4 -4 -3 -3 -4 -4 -2 1 1 0 -0 -0 -1 -1 -1 -1 -2 -2 -2 -2 -3 -3 -4 -5 -5 -6
-8 -8 -7 -7 -7 -6 -6 -6 -7 -5 -4 -2 0 -0 -2 -5 -5 -5 -5 -4 -4 -5 -5 -3 0 0 -0 -0 -0 -1 -2 -2 -2 -2 -2 -2 -2 -3 -3 -4 -5 -6 -6 -7
-9 -10 -8 -8 -7 -6 -5 -5 -5 -4 -3 -2 -1 -2 -3 -4 -5 -6 -5 -5 -5 -5 -4 -0 0 0 -0 -1 -1 -1 -2 -2 -2 -2 -2 -3 -3 -4 -5 -5 -6 -7 -7 -7
-12 -10 -9 -8 -7 -6 -5 -5 -5 -5 -4 -3 -3 -2 -3 -4 -5 -5 -5 -5 -5 -4 0 0 -0 -1 -1 -1 -2 -2 -2 -2 -2 -3 -3 -4 -4 -5 -6 -6 -7 -7 -7 -8
-11 -10 -9 -8 -7 -6 -6 -6 -6 -6 -5 -5 -5 -5 -6 -5 -4 -4 -4 -4 -3 -0 -0 -1 -1 -2 -2 -2 -2 -2 -3 -3 -3 -3 -4 -4 -5 -6 -6 -7 -7 -8 -8 -8
-13 -11 -10 -9 -8 -7 -7 -7 -7 -7 -6 -6 -7 -6 -5 -5 -4 -4 -3 -2 -1 -1 -1 -2 -2 -3 -3 -2 -3 -3 -3 -4 -4 -4 -4 -5 -6 -6 -7 -8 -8 -9 -9 -9
Height
3081 3081 3079 3077 3075 3072 3070 3068 3067 3064 3062 3062 3058 3057 3056 3055 3055 3054 3054 3055 3055 3055 3054 3053 3053 3054 3055 3057 3059 3060 3062 3064 3067 3070 3071 3073 3075 3077 3079 3080 3083 3082 3083 3084
3078 3078 3077 3076 3073 3072 3069 3068 3066 3064 3062 3060 3059 3058 3057 3056 3055 3055 3055 3056 3056 3055 3055 3056 3055 3054 3055 3058 3061 3063 3063 3065 3067 3071 3074 3073 3074 3077 3079 3080 3082 3081 3083 3084
3074 3075 3075 3074 3072 3071 3069 3067 3065 3064 3062 3060 3059 3058 3057 3056 3056 3055 3055 3055 3056 3056 3056 3055 3055 3056 3057 3058 3061 3062 3064 3064 3066 3067 3067 3071 3072 3074 3077 3079 3081 3081 3081 3082
3070 3071 3072 3072 3071 3069 3069 3066 3065 3063 3062 3060 3058 3057 3057 3056 3056 3056 3055 3056 3056 3056 3056 3055 3055 3055 3057 3059 3061 3062 3064 3065 3066 3067 3068 3069 3071 3072 3074 3075 3078 3079 3080 3081
3066 3067 3068 3069 3068 3068 3067 3066 3064 3063 3061 3059 3058 3057 3057 3056 3055 3056 3055 3055 3055 3056 3055 3056 3055 3056 3057 3059 3060 3062 3063 3064 3065 3066 3067 3068 3068 3069 3070 3071 3072 3073 3076 3078
3061 3063 3064 3066 3066 3065 3065 3064 3063 3062 3061 3059 3058 3057 3056 3056 3055 3055 3055 3055 3055 3055 3056 3055 3055 3056 3057 3058 3060 3061 3062 3063 3063 3065 3065 3066 3066 3063 3065 3066 3067 3071 3071 3074
3056 3059 3060 3062 3063 3063 3063 3063 3062 3061 3060 3059 3058 3057 3056 3055 3055 3055 3055 3055 3055 3056 3055 3056 3056 3057 3058 3058 3059 3060 3061 3062 3063 3063 3063 3067 3059 3059 3060 3060 3062 3064 3066 3068
3051 3053 3056 3058 3059 3060 3060 3060 3061 3059 3059 3058 3057 3056 3055 3055 3055 3054 3054 3054 3055 3054 3055 3055 3056 3056 3057 3057 3058 3058 3060 3061 3061 3061 3061 3057 3055 3055 3056 3056 3058 3059 3060 3063
3046 3048 3051 3054 3056 3057 3057 3057 3058 3058 3057 3057 3056 3056 3055 3055 3054 3054 3054 3054 3054 3054 3054 3055 3055 3054 3054 3055 3054 3055 3057 3059 3062 3061 3061 3057 3053 3052 3053 3054 3054 3054 3055 3057
3041 3042 3045 3049 3051 3053 3054 3054 3054 3055 3055 3055 3054 3054 3054 3054 3053 3053 3052 3052 3053 3053 3053 3054 3054 3053 3053 3053 3052 3052 3054 3056 3056 3059 3059 3053 3051 3052 3052 3054 3057 3051 3051 3052
3035 3037 3039 3044 3047 3049 3049 3051 3051 3052 3052 3052 3052 3052 3052 3052 3052 3052 3052 3053 3051 3052 3052 3053 3052 3052 3052 3051 3050 3049 3051 3052 3053 3055 3057 3053 3050 3050 3052 3052 3050 3051 3050 3050
3028 3031 3033 3038 3042 3044 3045 3047 3048 3048 3049 3050 3050 3050 3050 3050 3050 3051 3051 3051 3050 3050 3051 3051 3051 3050 3050 3049 3049 3048 3049 3049 3050 3051 3049 3049 3049 3049 3049 3049 3049 3049 3050 3050
3022 3025 3028 3033 3036 3038 3040 3042 3044 3045 3045 3046 3046 3046 3047 3046 3047 3048 3049 3049 3049 3049 3049 3049 3049 3049 3049 3048 3047 3046 3046 3047 3047 3048 3047 3047 3048 3048 3048 3047 3048 3048 3048 3048
3013 3018 3022 3027 3030 3032 3035 3037 3039 3041 3042 3042 3042 3042 3043 3043 3044 3044 3045 3046 3046 3047 3047 3047 3047 3047 3046 3045 3045 3044 3045 3045 3044 3044 3044 3044 3043 3043 3043 3043 3043 3043 3044 3044
3005 3010 3014 3019 3023 3027 3029 3031 3034 3036 3039 3037 3037 3038 3039 3038 3039 3040 3041 3042 3043 3043 3043 3043 3044 3044 3044 3042 3040 3038 3040 3041 3041 3039 3040 3039 3039 3038 3038 3037 3037 3037 3038 3038
2999 3002 3006 3010 3015 3020 3024 3026 3028 3030 3031 3033 3033 3034 3035 3036 3036 3037 3038 3038 3038 3039 3039 3039 3038 3039 3041 3038 3035 3037 3037 3037 3037 3037 3036 3034 3034 3033 3033 3033 3032 3032 3032 3033
2994 2998 3001 3004 3008 3012 3016 3019 3022 3024 3027 3028 3029 3028 3028 3030 3031 3032 3032 3033 3033 3034 3034 3033 3034 3034 3035 3032 3031 3033 3032 3032 3031 3030 3030 3029 3028 3027 3027 3027 3027 3027 3027 3027
2988 2993 2996 2999 3002 3005 3008 3011 3015 3017 3020 3023 3024 3023 3024 3025 3025 3026 3026 3027 3027 3027 3027 3026 3027 3027 3026 3022 3026 3027 3026 3025 3025 3024 3023 3023 3022 3022 3022 3021 3022 3022 3022 3021
2983 2987 2991 2993 2996 2999 3004 3006 3009 3011 3016 3014 3015 3018 3021 3020 3021 3022 3023 3022 3022 3022 3021 3021 3021 3019 3013 3017 3018 3018 3019 3018 3018 3017 3017 3016 3016 3016 3015 3015 3015 3015 3015 3015
2977 2982 2985 2986 2990 2997 3000 3003 3004 3003 3003 3003 3007 3011 3014 3017 3017 3018 3021 3019 3018 3015 3015 3013 3009 3004 3010 3010 3009 3008 3009 3010 3010 3010 3010 3010 3010 3010 3010 3010 3010 3010 3009 3009
2971 2975 2978 2981 2986 2992 2994 2996 2995 2994 2992 2992 2998 3002 3005 3010 3012 3014 3016 3014 3013 3010 3010 3009 3003 2997 3003 3001 3001 3001 3001 3001 3001 3002 3002 3003 3003 3004 3004 3004 3004 3004 3004 3005
2967 2971 2974 2978 2980 2984 2987 2985 2985 2983 2985 2986 2991 2992 2995 3000 3005 3010 3011 3012 3011 3006 3005 3005 2999 2998 2997 2997 2996 2996 2996 2996 2996 2997 2997 2998 2998 2999 2999 2999 2999 2999 3000 3000
2960 2965 2968 2969 2971 2973 2972 2970 2969 2972 2976 2981 2985 2986 2989 2993 3000 3005 3007 3005 3003 3000 2999 2995 2992 2993 2993 2993 2993 2992 2992 2991 2991 2992 2993 2993 2994 2994 2994 2995 2996 2996 2996 2996
2955 2959 2961 2961 2959 2960 2960 2963 2966 2973 2977 2980 2982 2982 2985 2988 2993 2997 2999 2998 2996 2992 2990 2986 2989 2989 2989 2989 2989 2988 2988 2988 2988 2987 2988 2989 2990 2991 2992 2992 2991 2991 2992 2991
2952 2954 2952 2952 2954 2953 2956 2959 2963 2968 2973 2976 2978 2979 2981 2983 2988 2987 2990 2989 2985 2983 2982 2983 2984 2985 2985 2984 2984 2984 2985 2985 2986 2985 2984 2984 2985 2986 2987 2988 2987 2986 2987 2987
2945 2944 2943 2946 2951 2952 2954 2956 2958 2964 2967 2970 2972 2974 2976 2977 2977 2979 2977 2977 2974 2979 2981 2982 2981 2981 2981 2981 2981 2981 2982 2982 2981 2981 2981 2981 2981 2982 2983 2983 2981 2981 2980 2979
2933 2932 2937 2941 2945 2947 2950 2955 2956 2958 2960 2962 2963 2965 2968 2968 2967 2966 2967 2968 2975 2976 2978 2978 2978 2977 2976 2976 2977 2977 2977 2977 2978 2977 2977 2978 2978 2978 2978 2978 2976 2976 2974 2972
Wind_Speed
12 11 10 10 11 11 8 8 8 9 6 5 5 4 3 1 1 3 1 3 3 1 2 2 2 8 5 17 6 2 4 8 13 13 7 12 13 15 15 1 2 2 2 2
13 11 9 8 8 9 8 7 8 7 7 4 4 3 3 1 1 1 3 3 0 1 1 1 2 6 8 12 3 6 8 3 10 4 8 12 15 16 18 16 4 3 3 2
14 12 9 8 7 8 8 6 6 7 6 6 4 4 2 2 1 2 5 5 5 5 6 5 3 8 11 12 4 4 5 6 5 13 11 12 17 21 17 19 10 5 6 4
15 13 11 8 6 7 6 6 5 6 6 5 4 4 3 1 1 2 4 5 6 4 4 4 6 11 12 15 9 4 5 2 5 4 5 9 13 17 23 22 23 15 13 12
17 15 12 10 7 6 6 6 6 5 6 5 4 4 3 2 1 2 4 4 6 5 4 2 4 9 10 13 14 9 6 5 4 7 7 7 9 14 19 24 25 28 27 24
18 16 13 11 9 6 6 6 5 5 5 5 4 4 4 3 2 2 2 3 3 4 4 2 6 7 13 9 10 15 11 10 6 4 8 9 15 19 19 25 28 27 29 22
19 18 15 13 11 8 6 6 6 5 5 4 4 4 4 4 4 3 3 3 2 3 3 4 4 6 9 9 9 12 9 10 6 3 4 1 11 11 13 20 25 26 27 25
21 19 17 15 13 10 7 6 7 6 6 5 4 4 3 3 3 4 4 4 4 3 5 5 4 7 7 10 11 11 13 9 3 2 6 11 11 12 13 14 17 20 24 24
23 21 19 17 15 13 10 8 7 8 7 5 5 4 4 3 2 3 4 4 5 5 5 5 3 3 4 3 4 16 13 12 10 3 3 4 3 4 8 10 12 13 19 18
25 22 19 19 17 16 12 10 9 9 8 8 6 5 5 5 3 3 3 4 5 6 6 6 4 4 5 3 4 5 17 14 16 15 6 7 8 6 3 3 2 5 7 13
26 23 20 21 19 18 14 13 11 10 10 10 9 9 6 5 5 5 5 4 4 5 6 3 4 4 5 5 6 3 5 9 8 13 8 7 4 3 4 3 5 5 3 3
27 25 22 23 22 19 16 15 14 13 11 10 9 9 10 10 9 8 7 6 3 3 3 3 3 4 4 4 3 6 4 8 3 8 4 4 2 4 4 5 6 7 7 6
33 26 24 26 24 21 19 17 16 15 14 14 15 14 13 13 10 8 9 8 8 8 7 7 5 5 6 5 4 6 5 8 9 7 2 4 5 9 9 11 13 14 12 10
33 30 26 28 26 23 20 18 17 17 16 16 17 16 14 14 12 12 11 10 11 11 11 11 10 9 8 8 9 12 9 10 11 15 14 15 17 16 14 14 14 16 15 15
27 29 28 27 27 24 22 20 19 18 17 12 9 9 8 11 14 11 11 9 10 12 13 13 12 13 13 15 17 16 8 5 9 13 12 13 15 16 17 18 18 18 17 19
19 26 32 37 32 27 26 22 20 20 19 20 20 18 19 18 17 16 16 18 17 17 17 17 19 17 14 11 15 11 7 11 13 14 15 16 17 18 18 18 18 18 20 21
21 18 18 20 28 33 31 27 28 26 21 21 16 20 22 22 20 18 18 16 15 15 17 21 21 21 20 25 23 14 16 19 18 18 17 17 18 17 16 16 16 17 17 19
23 20 19 16 16 17 20 22 23 20 19 21 12 12 13 13 16 18 19 19 19 20 21 22 22 23 25 27 22 21 20 20 20 21 21 21 19 18 18 18 18 18 19 20
27 23 20 20 20 20 17 19 21 22 22 14 18 22 14 16 21 18 17 17 16 20 23 26 24 27 32 31 29 28 27 26 25 23 22 22 21 22 22 21 19 19 19 19
18 21 27 29 28 22 18 17 18 25 31 33 31 27 23 18 16 17 20 18 13 14 17 18 26 38 31 27 29 30 28 28 27 27 26 24 24 22 20 19 18 18 19 19
24 21 29 31 23 26 22 15 14 14 16 21 28 29 31 28 24 18 11 9 6 6 11 15 11 32 21 18 18 17 17 17 19 19 18 18 17 16 16 16 16 16 17 17
25 21 26 31 22 15 14 14 14 14 15 12 10 17 26 35 31 22 12 14 8 8 8 6 8 19 18 13 13 12 13 14 15 13 12 11 12 13 13 13 13 14 14 15
29 17 19 16 17 15 15 20 20 19 13 11 16 21 20 26 28 17 10 10 10 8 7 7 18 14 10 9 11 12 14 13 11 9 11 11 12 13 12 11 11 12 14 16
24 24 11 14 10 17 20 26 18 20 22 18 15 18 18 19 21 12 8 12 8 7 8 17 8 4 9 15 13 12 11 10 10 12 11 12 12 11 10 11 12 13 15 19
16 12 12 15 12 18 23 28 18 15 19 18 19 21 21 18 12 12 11 8 9 10 9 3 10 13 17 16 10 8 8 10 11 11 13 13 12 11 12 13 15 18 20 21
23 17 20 29 20 22 17 13 14 20 20 21 21 21 15 14 11 13 14 11 9 9 6 14 18 18 19 16 11 9 11 13 14 15 16 16 15 14 15 18 21 21 22 24
22 34 38 26 29 24 22 23 18 14 23 26 23 16 13 11 17 28 25 31 29 16 21 22 22 22 20 19 18 17 16 14 16 18 19 19 18 18 18 18 22 22 25 28
Wind_Direction
279 297 317 334 349 341 339 321 327 336 343 349 356 24 42 338 235 90 80 137 106 81 39 4 46 152 169 183 95 141 107 160 163 185 187 195 208 213 219 258 191 149 172 257
266 280 299 319 341 341 340 323 308 327 338 338 358 18 34 64 357 169 135 170 199 230 270 340 103 163 163 156 177 132 206 172 130 190 219 206 215 223 228 237 279 219 152 290
256 265 281 300 327 333 341 329 310 309 320 331 343 340 4 22 314 248 224 213 227 270 294 289 219 182 176 167 178 155 150 165 187 197 200 207 218 224 227 230 237 237 242 307
247 254 264 278 302 316 332 333 315 320 314 322 320 338 340 306 260 251 220 225 226 255 292 280 218 198 190 198 207 213 200 222 197 171 184 216 230 233 229 235 236 242 262 262
242 246 253 263 276 295 313 324 323 321 313 309 307 321 317 316 292 237 239 249 245 257 270 260 200 199 200 194 211 216 217 230 233 232 249 255 251 235 233 238 240 243 249 260
238 241 245 252 259 271 297 307 316 318 324 318 307 300 301 299 290 273 257 233 218 235 235 240 206 204 187 201 210 217 225 223 222 228 238 263 274 251 247 243 245 247 249 257
229 237 240 245 251 255 272 290 297 305 310 311 308 311 283 284 277 270 248 245 241 231 227 188 187 213 216 223 222 215 219 222 209 231 187 275 253 245 245 245 248 250 253 258
227 230 235 239 244 248 253 270 283 291 296 299 291 313 302 271 274 275 257 243 234 243 224 219 226 225 222 235 240 231 224 221 226 236 226 274 258 254 247 247 250 250 253 253
230 224 229 236 239 241 243 253 269 279 291 298 292 280 299 272 258 282 272 263 250 242 216 221 251 232 215 217 229 218 220 224 220 218 257 241 276 255 240 251 272 255 250 247
230 223 225 233 235 238 237 243 250 266 276 282 283 286 287 260 255 270 281 276 270 246 230 237 249 237 217 233 228 216 213 218 224 229 252 275 273 250 225 204 289 306 273 241
227 222 222 233 234 235 234 242 246 253 266 274 276 282 269 258 262 278 281 277 267 243 233 244 243 236 230 250 245 245 210 204 211 212 221 270 283 244 222 268 296 319 315 240
230 226 218 232 233 233 231 238 246 249 255 263 271 273 266 276 273 267 267 256 256 227 230 246 262 268 259 268 276 233 223 209 218 214 229 243 312 308 303 283 295 308 309 283
228 233 225 228 231 232 231 233 243 252 254 264 267 269 272 269 259 255 261 252 252 256 258 254 254 261 267 272 275 265 256 244 245 273 296 269 273 296 289 279 276 276 274 265
218 226 229 229 230 231 232 232 237 244 254 257 263 265 266 262 262 264 260 254 259 259 256 256 258 261 266 267 265 263 258 261 275 278 275 273 272 272 269 265 268 265 261 253
211 223 222 227 228 229 231 232 235 238 240 250 257 255 269 268 255 247 247 246 269 270 258 255 260 268 272 276 274 278 275 280 284 289 297 291 283 279 280 279 277 271 265 261
213 217 225 227 227 230 232 231 236 239 241 248 259 260 260 252 253 268 262 265 266 264 265 267 270 272 260 266 270 286 260 302 296 289 287 287 284 281 277 275 274 268 263 260
207 210 213 217 222 228 228 236 242 238 238 244 258 265 256 251 253 254 259 262 258 256 262 265 269 270 267 270 275 304 288 296 296 293 290 289 288 286 283 279 274 269 264 260
205 209 209 211 213 216 220 225 227 229 229 234 231 238 240 241 241 241 246 250 255 261 256 263 264 265 267 270 291 288 289 292 291 292 290 290 287 291 292 289 284 276 269 267
210 211 214 222 222 224 216 221 225 225 220 212 224 232 240 238 234 240 243 244 249 259 261 264 262 260 256 277 285 285 284 283 285 281 282 282 280 288 286 283 280 274 270 268
207 205 209 222 228 226 226 225 237 235 230 229 235 243 236 242 243 246 250 257 252 253 257 263 259 268 280 281 278 276 278 279 276 278 280 277 279 282 279 278 277 275 273 273
212 226 219 220 228 219 215 218 221 221 230 242 249 243 241 240 241 240 233 240 248 257 249 252 264 280 307 288 280 279 278 278 279 280 279 274 271 271 271 271 271 273 273 272
211 215 220 215 203 202 209 211 215 224 222 211 215 228 228 230 234 233 242 242 253 243 239 249 267 302 310 310 297 286 276 276 280 278 272 274 279 277 275 272 268 267 270 276
232 211 197 195 192 196 201 209 208 203 198 208 216 225 220 220 224 221 218 222 230 237 224 236 279 319 315 313 314 298 287 279 268 263 279 275 269 267 266 268 273 276 279 282
235 226 211 206 194 206 214 227 242 225 228 219 218 227 209 205 196 195 208 221 223 225 225 268 325 338 324 324 315 291 279 264 267 275 269 264 261 254 257 267 272 275 279 288
215 227 222 221 210 209 215 227 234 220 219 224 226 218 202 198 184 196 208 208 221 210 238 295 335 325 325 328 309 276 266 258 259 261 267 264 253 255 275 281 283 285 295 302
204 210 222 223 227 226 224 224 235 219 203 209 210 214 209 208 202 203 206 211 210 236 288 312 318 315 317 314 310 278 266 265 263 264 262 256 252 266 278 284 289 297 303 306
217 227 224 219 219 232 239 238 235 221 215 209 199 200 197 212 220 226 227 239 252 259 290 300 305 304 301 301 295 291 280 270 261 261 255 256 265 275 280 286 292 298 303 307